FW4441 Weather Reports


Display with metric or nautical units.
time (UTC)temp
F
wind
direction
speed
MPH
gust
MPH
rain 1hr
in
rain 24hr
in
rain mn
in
humidity
%
barometer
mb
20260906151604 53 350 2.0 4.0 0.06 0.14 0.12 97 1014.5
20260906150031 53 22 0.0 2.0 0.05 0.12 0.11 97 1014.3
20260906143105 53 22 1.0 2.0 0.04 0.09 0.08 97 1013.8
20260906140032 53 22 0.0 1.0 0.02 0.07 0.06 97 1013.6
20260906134531 53 22 0.0 2.0 0.01 0.06 0.05 97 1013.5
20260906133030 53 85 1.0 3.0 0.00 0.05 0.05 96 1013.3
20260906131530 53 112 0.0 0.0 0.00 0.05 0.05 96 1013.2
20260906130030 53 112 0.0 1.0 0.00 0.05 0.05 96 1013.2
20260906124531 53 157 0.0 2.0 0.00 0.05 0.05 96 1013.4
20260906123032 53 185 1.0 3.0 0.00 0.05 0.05 96 1013.5
20260906120032 53 36 0.0 2.0 0.00 0.05 0.05 96 1013.5
20260906113032 53 327 0.0 3.0 0.01 0.05 0.05 96 1013.6
20260906110107 53 315 0.0 3.0 0.01 0.05 0.05 95 1013.7
20260906104530 53 330 3.0 4.0 0.02 0.05 0.04 95 1013.9
20260906103029 53 346 1.0 4.0 0.01 0.04 0.04 94 1013.9
20260906101528 53 315 0.0 3.0 0.03 0.04 0.04 94 1014.1
20260906094531 54 157 0.0 2.0 0.03 0.03 0.03 94 1014.0
20260906093101 54 132 0.0 2.0 0.03 0.03 0.01 93 1014.0
20260906090031 53 106 0.0 1.0 0.01 0.01 0.00 92 1013.9
20260906084529 53 111 0.0 2.0 0.00 0.00 0.00 92 1013.9
20260906083030 54 67 0.0 2.0 0.00 0.00 0.00 92 1014.0
20260906081530 54 67 0.0 1.0 0.00 0.00 0.00 92 1013.9
20260906074528 53 118 1.0 4.0 0.00 0.00 0.00 92 1013.8
20260906073028 53 167 0.0 2.0 0.00 0.00 0.00 92 1013.9
20260906071530 53 117 0.0 1.0 0.00 0.00 0.00 92 1014.0
20260906064530 53 131 0.0 2.0 0.00 0.00 0.00 92 1014.2
20260906063028 53 336 0.0 2.0 0.00 0.00 0.00 92 1014.3
20260906061529 53 314 0.0 0.0 0.00 0.00 0.00 91 1014.2
20260906060103 53 292 0.0 2.0 0.00 0.01 0.00 91 1014.4
20260906054531 53 292 0.0 2.0 0.00 0.01 0.00 91 1014.4
20260906053032 54 292 0.0 0.0 0.00 0.01 0.00 90 1014.4
20260906051529 54 292 0.0 0.0 0.00 0.01 0.00 90 1014.4
20260906050031 54 292 1.0 2.0 0.00 0.01 0.00 90 1014.4
20260906044532 54 292 0.0 0.0 0.00 0.01 0.00 89 1014.5
20260906043030 55 292 0.0 0.0 0.00 0.01 0.00 88 1014.5
20260906041532 55 292 0.0 2.0 0.00 0.01 0.00 88 1014.5
20260906040029 55 292 0.0 3.0 0.00 0.01 0.00 87 1014.4
20260906034531 55 272 0.0 2.0 0.00 0.01 0.00 86 1014.2
20260906031528 57 200 0.0 2.0 0.00 0.01 0.00 82 1013.8
20260906030030 59 157 1.0 3.0 0.00 0.01 0.00 80 1013.8
20260906023028 61 137 3.0 5.0 0.00 0.01 0.00 78 1013.7
20260906021532 62 162 3.0 6.0 0.00 0.01 0.00 75 1013.7
20260906020145 63 162 3.0 6.0 0.00 0.01 0.00 72 1013.6
20260906014529 63 158 2.0 5.0 0.00 0.01 0.00 70 1013.6
20260906013105 65 175 2.0 4.0 0.00 0.01 0.00 69 1013.7
20260906011531 67 164 2.0 6.0 0.00 0.01 0.00 68 1013.7
20260906010107 67 183 2.0 4.0 0.00 0.01 0.00 68 1013.9
20260906003032 66 169 4.0 8.0 0.00 0.01 0.00 75 1014.1
20260906001605 63 164 2.0 7.0 0.00 0.01 0.00 78 1014.3
20260906000031 62 147 3.0 7.0 0.00 0.01 0.00 77 1014.4
20260905233031 63 166 4.0 10.0 0.00 0.01 0.00 73 1014.1
20260905231528 65 176 3.0 8.0 0.00 0.01 0.00 70 1014.0
20260905230032 65 161 2.0 4.0 0.00 0.01 0.00 68 1014.0
20260905224530 66 311 0.0 3.0 0.00 0.01 0.00 68 1013.9
20260905223028 66 283 0.0 0.0 0.00 0.01 0.00 68 1013.9
20260905221532 68 258 0.0 4.0 0.00 0.01 0.00 66 1013.9
20260905220032 69 309 0.0 3.0 0.00 0.01 0.00 66 1014.0
20260905214532 67 213 1.0 3.0 0.00 0.01 0.00 69 1014.1
20260905211532 66 185 2.0 5.0 0.00 0.01 0.00 71 1014.4
20260905210028 66 187 3.0 5.0 0.00 0.01 0.00 70 1014.5
20260905204532 67 188 4.0 7.0 0.00 0.01 0.00 69 1014.5
20260905203105 69 171 3.0 6.0 0.00 0.01 0.00 67 1014.5
20260905201530 69 207 2.0 5.0 0.00 0.01 0.00 68 1014.5
20260905200030 69 318 1.0 5.0 0.00 0.01 0.00 68 1014.7
20260905194532 68 315 2.0 5.0 0.00 0.01 0.00 71 1014.8
20260905193030 69 300 1.0 6.0 0.00 0.01 0.00 71 1015.0
20260905191541 68 329 2.0 5.0 0.00 0.01 0.00 73 1015.1
20260905190033 68 263 1.0 6.0 0.00 0.01 0.00 78 1015.3
20260905184530 64 297 0.0 3.0 0.00 0.01 0.00 81 1015.6
20260905183031 65 331 2.0 6.0 0.00 0.01 0.00 84 1015.7
20260905181531 62 257 2.0 6.0 0.00 0.01 0.00 89 1016.0
20260905180032 60 251 1.0 3.0 0.00 0.01 0.00 94 1016.0
20260905173030 57 292 1.0 3.0 0.00 0.01 0.00 96 1016.0
20260905171529 56 301 1.0 5.0 0.00 0.01 0.00 96 1016.0
20260905164607 55 270 0.0 1.0 0.00 0.01 0.00 97 1016.0
20260905160031 54 254 0.0 3.0 0.00 0.01 0.00 97 1015.9
20260905154531 53 19 0.0 2.0 0.00 0.01 0.00 97 1015.9
20260905153028 52 22 1.0 4.0 0.00 0.01 0.00 97 1015.9